User: anonymous   Login
Location: Unspecified
(0.0000°N, 0.0000°E)
Time: 00:39:13
(UTC+00:00)
Language:

DNEPR OBJECT X - Orbit

View from above orbital plane
View from above orbital plane
View from above satellite
View from above satellite

Ground track
Ground track

The orbit data is extracted from the following two-line orbital elements,

1 39437U 13066X   17206.27817073 +.00011036 +00000-0 +37419-3 0  9991
2 39437 097.7135 309.0099 0009698 342.3141 017.7760 15.30684243202110
Epoch (UTC): 25 July 2017 06:40:33
Eccentricity: 0.0009698
inclination: 97.7135°
perigee height: 467 km
apogee height: 480 km
right ascension of ascending node: 309.0099°
argument of perigee: 342.3141°
revolutions per day: 15.30684243
mean anomaly at epoch: 17.7760°
orbit number at epoch: 20211

The dashed part of the orbit path shows where the satellite is in the earth's shadow,  

DLR